TimeMDT,TemperatureF,Dew PointF,Humidity,Sea Level PressureIn,VisibilityMPH,Wind Direction,Wind SpeedMPH,Gust SpeedMPH,PrecipitationIn,Events,Conditions,WindDirDegrees,DateUTC
12:15 AM,62.6,57.2,82,30.30,10.0,ENE,3.5,-,N/A,,Mostly Cloudy,60,2013-08-28 06:15:00
12:35 AM,62.6,57.2,82,30.30,10.0,East,5.8,-,N/A,,Partly Cloudy,90,2013-08-28 06:35:00
12:55 AM,60.8,57.2,88,30.31,10.0,East,4.6,-,N/A,,Clear,80,2013-08-28 06:55:00
1:15 AM,60.8,57.2,88,30.30,10.0,ESE,4.6,-,N/A,,Partly Cloudy,110,2013-08-28 07:15:00
1:35 AM,60.8,57.2,88,30.31,10.0,East,5.8,-,N/A,,Clear,90,2013-08-28 07:35:00
1:55 AM,59.0,55.4,88,30.31,10.0,East,3.5,-,N/A,,Clear,90,2013-08-28 07:55:00
2:15 AM,59.0,55.4,88,30.31,10.0,East,5.8,-,N/A,,Clear,80,2013-08-28 08:15:00
2:35 AM,59.0,55.4,88,30.31,10.0,East,4.6,-,N/A,,Clear,100,2013-08-28 08:35:00
2:55 AM,57.2,55.4,94,30.32,10.0,East,5.8,-,N/A,,Clear,90,2013-08-28 08:55:00
3:15 AM,57.2,55.4,94,30.32,10.0,East,5.8,-,N/A,,Clear,90,2013-08-28 09:15:00
3:35 AM,57.2,53.6,88,30.32,10.0,ENE,4.6,-,N/A,,Clear,70,2013-08-28 09:35:00
3:55 AM,55.4,53.6,94,30.32,10.0,East,5.8,-,N/A,,Clear,90,2013-08-28 09:55:00
4:15 AM,55.4,53.6,94,30.32,10.0,ESE,3.5,-,N/A,,Clear,110,2013-08-28 10:15:00
4:35 AM,55.4,53.6,94,30.32,10.0,Calm,Calm,-,N/A,,Clear,0,2013-08-28 10:35:00
4:55 AM,55.4,53.6,94,30.32,10.0,ESE,3.5,-,N/A,,Clear,110,2013-08-28 10:55:00
5:15 AM,55.4,53.6,94,30.33,10.0,Calm,Calm,-,N/A,,Clear,0,2013-08-28 11:15:00
5:35 AM,55.4,53.6,94,30.33,10.0,Calm,Calm,-,N/A,,Clear,0,2013-08-28 11:35:00
5:55 AM,55.4,53.6,94,30.33,10.0,Calm,Calm,-,N/A,,Clear,0,2013-08-28 11:55:00
6:15 AM,53.6,51.8,94,30.33,10.0,ENE,5.8,-,N/A,,Clear,70,2013-08-28 12:15:00
6:35 AM,53.6,51.8,94,30.34,10.0,ENE,5.8,-,N/A,,Clear,70,2013-08-28 12:35:00
6:50 AM,53.6,51.8,94,30.34,10.0,Variable,5.8,-,N/A,,Partly Cloudy,0,2013-08-28 12:50:00
7:50 AM,55.4,51.8,88,30.35,10.0,Calm,Calm,-,N/A,,Partly Cloudy,0,2013-08-28 13:50:00
8:55 AM,62.6,53.6,72,30.35,10.0,Calm,Calm,-,N/A,,Partly Cloudy,0,2013-08-28 14:55:00
9:55 AM,64.4,53.6,68,30.35,10.0,Calm,Calm,-,N/A,,Partly Cloudy,0,2013-08-28 15:55:00
10:50 AM,71.6,51.8,50,30.34,10.0,Calm,Calm,-,N/A,,Partly Cloudy,0,2013-08-28 16:50:00
11:50 AM,75.2,51.8,44,30.31,10.0,Calm,Calm,-,N/A,,Partly Cloudy,0,2013-08-28 17:50:00
12:50 PM,80.6,48.2,32,30.27,10.0,South,6.9,-,N/A,,Partly Cloudy,180,2013-08-28 18:50:00
1:50 PM,84.2,42.8,23,30.24,10.0,Calm,Calm,-,N/A,,Scattered Clouds,0,2013-08-28 19:50:00
2:50 PM,87.8,42.8,21,30.21,10.0,South,6.9,-,N/A,,Scattered Clouds,190,2013-08-28 20:50:00
3:50 PM,87.8,41.0,19,30.19,10.0,West,6.9,-,N/A,,Mostly Cloudy,270,2013-08-28 21:50:00
4:50 PM,89.6,39.2,17,30.14,10.0,SSW,11.5,-,N/A,Thunderstorm,Thunderstorm,200,2013-08-28 22:50:00
5:20 PM,78.8,44.6,30,30.19,10.0,SE,29.9,39.1,N/A,Thunderstorm,Thunderstorm,130,2013-08-28 23:20:00
5:50 PM,78.8,46.4,32,30.23,10.0,NE,19.6,28.8,N/A,Thunderstorm,Thunderstorm,40,2013-08-28 23:50:00
6:50 PM,75.2,46.4,36,30.26,10.0,ENE,13.8,23.0,N/A,,Mostly Cloudy,60,2013-08-29 00:50:00
7:15 PM,75.2,46.4,36,30.28,10.0,ENE,4.6,-,N/A,,Clear,60,2013-08-29 01:15:00
7:35 PM,73.4,50.0,44,30.30,10.0,WNW,11.5,-,N/A,,Clear,300,2013-08-29 01:35:00
7:55 PM,71.6,51.8,50,30.31,10.0,West,6.9,-,N/A,,Clear,260,2013-08-29 01:55:00
8:15 PM,69.8,51.8,53,30.32,10.0,West,8.1,-,N/A,,Clear,260,2013-08-29 02:15:00
8:35 PM,69.8,50.0,49,30.33,10.0,WSW,3.5,-,N/A,,Scattered Clouds,240,2013-08-29 02:35:00
8:55 PM,71.6,48.2,43,30.35,10.0,Calm,Calm,-,N/A,,Overcast,0,2013-08-29 02:55:00
9:15 PM,69.8,50.0,49,30.35,10.0,Calm,Calm,-,N/A,,Overcast,0,2013-08-29 03:15:00
9:35 PM,69.8,50.0,49,30.37,10.0,Calm,Calm,-,N/A,,Mostly Cloudy,0,2013-08-29 03:35:00
9:55 PM,69.8,51.8,53,30.37,10.0,Calm,Calm,-,N/A,,Scattered Clouds,0,2013-08-29 03:55:00
10:15 PM,69.8,51.8,53,30.38,10.0,West,4.6,-,N/A,,Scattered Clouds,260,2013-08-29 04:15:00
10:35 PM,68.0,51.8,56,30.38,10.0,East,3.5,-,N/A,,Clear,80,2013-08-29 04:35:00
10:55 PM,66.2,53.6,64,30.37,10.0,East,4.6,-,N/A,,Clear,90,2013-08-29 04:55:00
11:15 PM,64.4,53.6,68,30.37,10.0,ENE,5.8,-,N/A,,Clear,70,2013-08-29 05:15:00
11:35 PM,64.4,53.6,68,30.37,10.0,ENE,3.5,-,N/A,,Clear,60,2013-08-29 05:35:00
11:55 PM,62.6,53.6,72,30.37,10.0,ENE,4.6,-,N/A,,Clear,70,2013-08-29 05:55:00